Flag for Canada Weather past 2 weeks in Vaughan, Ontario, Canada

Now
61 °F

Passing clouds.


Feels Like: 61 °F
Forecast: 47 / 68 °F
Wind: 9 mph from East

Location: Toronto Buttonville

Current Time: Jun 3, 2015 at 11:52:42 AM

Latest Report: Jun 3, 2015 at 11:00 AM


Visibility: 15 mi

Pressure: 30.24 "Hg

Humidity: 48%

Dew point: 41 °F

Location of VaughanLocation

Historic Weather in Vaughan — Graph

°F

Vaughan temperature yesterday

Maximum temperature yesterday: 66 °F (at 5:00 PM)
Minimum temperature yesterday: 46 °F (at 3:00 AM)
Average temperature yesterday: 56 °F

Past Weeks' High & Low Weather Summary

 TemperatureHumidityPressure
High82 °F (May 24, 2:00 PM)94% (May 30, 5:04 PM)30.42 "Hg (May 30, 5:04 PM)
Low37 °F (May 20, 6:00 AM)19% (May 23, 4:00 PM)29.83 "Hg (May 21, 5:00 PM)
Average61 °F60%30.10 "Hg
* Reported May 19 11:00 AM — Jun 3 11:00 AM, Vaughan, Weather by CustomWeather, © 2015

Note: Actual official high and low records may vary slightly from our data, if they occured in-between our weather recording intervals... More about our weather records

Advertising

Vaughan weather history for previous 24 hours

 ConditionsComfort  
Time TempWeatherWind HumidityBarometerVisibility
11:00 AM
Wed, Jun 3
61 °FPassing clouds.9 mph48%30.24 "Hg15 mi
10:00 AM59 °FPassing clouds.10 mph59%30.25 "Hg15 mi
9:00 AM57 °FPassing clouds.6 mph67%30.26 "Hg15 mi
8:00 AM54 °FPassing clouds.6 mph77%30.25 "Hg15 mi
7:00 AM50 °FPassing clouds.5 mph82%30.25 "Hg15 mi
6:00 AM45 °FPassing clouds.2 mph93%30.24 "Hg15 mi
5:00 AM46 °FClear.No wind87%30.22 "Hg15 mi
4:00 AM46 °FClear.2 mph87%30.22 "Hg15 mi
3:00 AM48 °FClear.No wind82%30.22 "Hg15 mi
2:00 AM48 °FClear.2 mph82%30.22 "Hg15 mi
1:00 AM50 °FClear.2 mph76%30.23 "Hg15 mi
12:00 AM52 °FClear.7 mph72%30.23 "Hg15 mi
11:00 PM
Tue, Jun 2
52 °FClear.5 mph77%30.22 "Hg15 mi
10:00 PM54 °FPassing clouds.6 mph72%30.22 "Hg15 mi
9:00 PM57 °FPassing clouds.8 mph63%30.20 "Hg15 mi
8:00 PM61 °FPassing clouds.10 mph55%30.17 "Hg15 mi
7:00 PM64 °FPassing clouds.7 mph52%30.15 "Hg15 mi
6:00 PM66 °FPassing clouds.7 mph56%30.16 "Hg15 mi
5:00 PM66 °FPassing clouds.10 mph52%30.17 "Hg15 mi
4:00 PM64 °FScattered clouds.6 mph60%30.18 "Hg15 mi
3:00 PM63 °FBroken clouds.8 mph59%30.19 "Hg15 mi
2:00 PM63 °FScattered clouds.9 mph59%30.19 "Hg15 mi
1:00 PM64 °FBroken clouds.7 mph60%30.20 "Hg15 mi
12:00 PM63 °FBroken clouds.2 mph59%30.21 "Hg15 mi
11:00 AM61 °FScattered clouds.6 mph59%30.22 "Hg15 mi
Weather by CustomWeather, © 2015

See weather overviewHow to use our weather pages